Tracking 19490 objects as of 23-Jan-2019
HD Live streaming from Space Station
objects crossing your sky now

COSMOS 1150

Track COSMOS 1150 now!
10-day predictions
COSMOS 1150 is classified as:


NORAD ID: 11667
Int'l Code: 1980-003A
Perigee: 971.6 km
Apogee: 1,017.0 km
Inclination: 83.0 °
Period: 104.8 minutes
Semi major axis: 7365 km
RCS: 2.2107 m2 (large)
Launch date: January 14, 1980
Source: Commonwealth of Independent States (former USSR) (CIS)
Launch site: PLESETSK MISSILE AND SPACE COMPLEX (PKMTR)
aabbcc
Your satellite tracking list
Your tracking list is empty




NASA's NSSDC Master Catalog

Two Line Element Set (TLE):
1 11667U 80003A   19022.94562234 +.00000009 +00000-0 -59358-5 0  9996
2 11667 082.9547 011.8406 0030789 244.7693 170.9793 13.73457341951403
Source of the keplerian elements: AFSPC